sat.trackr.live / text

‹ back to catalog

STARLINK-31764

NORAD 59653 · 2024-082Y

PAYLOAD ACTIVE UNKNOWN

§ Identity

Operator
Country
US
Launch date
2024-05-03
Launch site
AFETR
Launch vehicle
Mass (kg)
RCS (m²)

Purposes: comms

External: N2YO · Heavens-Above · Gunter

§ Orbital elements

Epoch: 2026-05-25T04:32:22.547040Z

Period
94.27 min
Inclination
43.0024°
Eccentricity
0.0000815
Mean motion
15.27550888 rev/d
Perigee alt
482.6 km
Apogee alt
483.7 km
Semi-major
6,861.3 km
B*
3.1938e-4
RAAN
67.5939°
Arg perigee
250.9928°
Mean anomaly
109.0835°
Rev number
11,671

§ Raw data

STARLINK-317641 59653U 24082Y   26145.18914985  .00008529  00000+0  31938-3 0  99972 59653  43.0024  67.5939 0000815 250.9928 109.0835 15.27550888116712

JSON: /api/v1/satellites/59653 · /tle

For live sub-satellite position, see the globe view (requires WebGL).

§ Visibility from observer

Set your observer location to see the next 7 days of passes ≥ 10°. The values pass through the URL so the page stays shareable.

No JS? Fill the form by hand. The geolocation button needs JavaScript.